Vorticity
nan nan nan nan nan nan nan nan nan nan nan nan nan nan nan nan nan nan nan nan nan nan
nan 3 5 5 2 3 6 6 8 6 4 6 7 6 5 6 7 7 9 12 10 nan
nan 8 6 8 7 5 6 5 5 5 5 5 6 7 6 5 8 7 7 10 12 nan
nan 10 7 7 8 9 7 9 8 7 6 7 7 7 8 7 9 9 9 9 11 nan
nan 10 8 8 8 8 7 8 8 7 8 8 8 8 8 9 10 12 10 10 9 nan
nan 8 9 9 9 8 8 8 9 8 9 10 9 8 9 9 10 10 9 10 9 nan
nan 9 9 10 9 9 10 10 9 9 9 10 12 12 10 8 8 7 8 10 9 nan
nan 10 9 10 10 10 10 9 9 10 11 9 10 13 15 11 8 7 9 10 12 nan
nan 10 9 9 10 9 10 11 10 9 9 6 7 14 12 9 12 12 11 12 13 nan
nan 10 10 11 10 9 9 10 11 11 11 10 9 13 10 8 6 13 14 14 12 nan
nan 11 11 11 10 11 12 11 11 12 11 11 18 17 15 13 11 15 19 17 13 nan
nan 11 11 11 11 12 12 16 16 17 17 15 15 17 20 16 13 12 13 16 17 nan
nan 11 11 14 12 13 14 14 14 14 18 20 19 19 15 10 8 9 8 10 13 nan
nan nan nan nan nan nan nan nan nan nan nan nan nan nan nan nan nan nan nan nan nan nan
CAPE
0 0 0 0 3 0 14 42 27 107 149 137 194 202 239 370 239 332 411 436 429 327
6 3 11 23 8 14 9 32 79 130 83 106 129 142 160 261 215 287 499 568 472 202
8 10 13 27 24 18 38 40 73 88 64 96 76 68 101 196 158 218 541 540 300 224
7 15 18 14 13 11 14 10 11 9 19 29 27 64 122 95 82 139 195 99 29 15
7 4 6 9 11 31 30 17 10 4 0 1 22 69 119 171 23 44 8 13 3 0
2 5 2 2 1 3 5 35 33 17 42 34 23 23 44 26 0 0 0 0 1 0
17 1 6 1 1 3 1 0 5 22 8 37 16 8 39 12 0 0 0 0 0 0
25 0 0 0 0 1 5 2 2 3 5 27 13 17 44 4 13 5 3 2 0 0
22 10 26 14 24 2 8 0 0 2 3 13 2 0 0 0 29 10 6 1 0 0
91 78 61 21 2 1 14 1 3 2 1 0 3 0 0 0 0 0 0 0 0 0
109 126 111 77 50 32 52 48 60 32 17 48 21 0 1 1 0 0 0 0 0 0
203 157 144 129 147 152 201 148 119 34 14 3 0 1 1 0 1 1 0 0 0 1
255 262 243 229 217 170 163 0 0 0 0 1 0 1 1 0 0 0 0 1 2 0
229 259 271 191 2 1 0 0 0 0 1 1 1 0 0 0 0 0 0 0 0 0